Weather reports worldwide

Advertisment
Manresa, Spain (8174): temperature & dewpoint: 10.01.2018 20:00:00 - 16.01.2018 20:00:00 (CET)Manresa, Spain (8174): wind speed & gusts: 10.01.2018 20:00:00 - 16.01.2018 20:00:00 (CET)Manresa, Spain (8174): wind direction: 10.01.2018 20:00:00 - 16.01.2018 20:00:00 (CET)Manresa, Spain (8174): reduced air pressure: 10.01.2018 20:00:00 - 16.01.2018 20:00:00 (CET)Manresa, Spain (8174): visibility: 10.01.2018 20:00:00 - 16.01.2018 20:00:00 (CET)Manresa, Spain (8174): sunshine duration: 10.01.2018 20:00:00 - 16.01.2018 20:00:00 (CET)Manresa, Spain (8174): precipitation: 10.01.2018 20:00:00 - 16.01.2018 20:00:00 (CET)
Date & Time tt [°C] td [°C] ff [km/h] ff [kn] fx [km/h] fx [kn] dd ppp [hPa] vv [km] sd [min] rr [mm]
16.01.2018 20:00:00 12,5 7,0 14 8 34 18 W 1018,5 20 0 0,0
16.01.2018 19:00:00 12,3 7,0 5 3 15 8 NW 1018,7 20 0 -
16.01.2018 18:00:00 13,3 6,8 10 5 31 17 W 1018,6 20 19 0,0
16.01.2018 17:00:00 14,6 7,0 9 5 27 15 WNW 1018,7 20 60 0,0
16.01.2018 16:00:00 14,4 6,5 16 8 31 17 WNW 1019,0 20 60 0,0
16.01.2018 15:00:00 13,9 6,1 16 9 31 17 WNW 1019,2 20 60 0,0
16.01.2018 14:00:00 13,3 5,1 8 4 26 14 NW 1019,9 20 60 0,0
16.01.2018 13:00:00 10,5 3,8 9 5 20 11 NE 1021,3 18 60 -
16.01.2018 12:00:00 8,0 3,0 12 6 23 13 ENE 1022,7 20 60 0,0
16.01.2018 11:00:00 5,3 1,7 13 7 24 13 NE 1023,6 18 60 0,0
16.01.2018 10:00:00 2,7 0,4 14 8 23 13 NE 1023,4 16 27 0,0
16.01.2018 09:00:00 1,1 -0,3 11 6 21 11 NE 1023,1 10 0 0,0
16.01.2018 08:00:00 1,3 0,2 4 2 21 11 NNE 1022,8 10 0 0,0
16.01.2018 07:00:00 1,6 0,4 9 5 23 13 ENE 1022,0 7 0 -
16.01.2018 06:00:00 1,9 0,6 14 7 21 12 ENE 1022,1 9 0 0,0
16.01.2018 05:00:00 2,4 1,1 9 5 16 9 ENE 1022,5 12 0 0,0
16.01.2018 04:00:00 3,8 1,5 8 5 16 8 NE 1022,9 13 0 0,0
16.01.2018 03:00:00 5,6 1,9 7 4 27 15 SW 1022,8 18 0 0,0
16.01.2018 02:00:00 5,6 2,1 8 4 19 11 WNW 1023,0 18 0 0,0
16.01.2018 01:00:00 6,4 2,1 11 6 32 17 WNW 1023,8 20 0 -
16.01.2018 00:00:00 6,1 2,5 13 7 23 13 W 1024,1 20 0 0,0
15.01.2018 23:00:00 6,2 2,7 9 5 19 11 W 1024,2 20 0 0,0
15.01.2018 22:00:00 5,7 2,5 4 2 21 11 SSE 1024,0 17 0 0,0
15.01.2018 21:00:00 5,9 2,5 14 7 23 13 WNW 1024,0 20 0 0,0
15.01.2018 20:00:00 5,2 1,9 9 5 19 11 W 1024,0 19 0 0,0
15.01.2018 19:00:00 5,4 1,7 10 6 25 13 WNW 1024,2 20 0 -
15.01.2018 18:00:00 5,4 1,9 6 3 23 12 WNW 1024,2 20 0 0,0
15.01.2018 17:00:00 6,1 2,1 11 6 24 13 WNW 1024,0 20 18 0,0
15.01.2018 16:00:00 7,0 2,5 9 5 31 17 NW 1024,1 20 59 0,0
15.01.2018 15:00:00 7,8 2,7 13 7 29 16 NW 1024,0 20 48 0,0
15.01.2018 14:00:00 6,6 2,9 6 4 13 7 NE 1024,6 20 7 0,0
15.01.2018 13:00:00 5,3 2,5 7 4 12 7 ENE 1025,9 14 0 -
15.01.2018 12:00:00 5,0 2,1 9 5 13 7 NNE 1026,7 13 0 0,0
15.01.2018 11:00:00 4,1 1,9 5 3 8 5 NNE 1026,8 10 0 0,0
15.01.2018 10:00:00 3,0 1,5 3 2 7 4 N 1026,6 13 0 0,0
15.01.2018 09:00:00 2,1 0,9 5 3 7 4 NNE 1025,9 13 0 0,0
15.01.2018 08:00:00 1,4 0,6 5 3 8 4 NE 1025,4 10 0 0,0
15.01.2018 07:00:00 1,0 0,2 3 2 10 5 N 1024,6 10 0 -
15.01.2018 06:00:00 0,9 0,4 5 3 8 4 NE 1024,2 8 0 0,0
15.01.2018 05:00:00 1,0 0,4 1 1 7 4 NNE 1023,5 7 0 0,0
15.01.2018 04:00:00 0,8 0,4 5 3 8 5 NNE 1023,5 5 0 0,0
15.01.2018 03:00:00 0,6 0,0 1 1 6 3 E 1023,0 6 0 0,0
15.01.2018 02:00:00 0,6 0,0 2 1 6 3 S 1022,6 7 0 0,0
15.01.2018 01:00:00 1,2 0,2 2 1 8 5 WNW 1022,8 8 0 -
15.01.2018 00:00:00 3,2 1,7 3 2 8 5 E 1022,4 17 0 0,0
14.01.2018 23:00:00 2,4 1,5 3 2 5 3 NNE 1022,0 11 0 0,0
14.01.2018 22:00:00 3,3 1,5 3 2 6 4 W 1021,3 14 0 0,0
14.01.2018 21:00:00 4,2 2,3 3 2 7 4 NE 1020,7 13 0 0,0
14.01.2018 20:00:00 4,9 2,3 3 2 7 4 W 1019,7 20 0 0,0
14.01.2018 19:00:00 5,6 2,3 4 2 11 6 NNW 1018,7 20 0 -
14.01.2018 18:00:00 6,4 2,3 6 3 18 10 WSW 1018,0 20 17 0,0
14.01.2018 17:00:00 7,6 2,9 11 6 27 15 W 1017,0 20 60 0,0
14.01.2018 16:00:00 7,4 2,7 15 8 25 14 W 1016,4 20 15 0,0
14.01.2018 15:00:00 8,4 3,4 7 4 14 8 W 1015,9 20 14 0,0
14.01.2018 14:00:00 7,9 3,6 4 2 13 7 NNE 1015,8 20 15 0,0
14.01.2018 13:00:00 6,8 3,6 6 4 20 11 W 1016,6 20 0 -
14.01.2018 12:00:00 6,4 3,4 10 6 19 10 W 1017,1 20 0 0,0
14.01.2018 11:00:00 6,2 3,2 7 4 16 8 W 1016,9 20 0 0,0
14.01.2018 10:00:00 5,4 2,9 6 3 16 9 WNW 1016,3 20 0 0,0
14.01.2018 09:00:00 5,2 2,9 6 3 17 9 W 1015,6 20 0 0,0
14.01.2018 08:00:00 5,5 2,9 9 5 19 10 WNW 1015,2 20 0 0,0
14.01.2018 07:00:00 5,5 3,6 7 4 19 10 W 1014,7 20 0 -
14.01.2018 06:00:00 5,7 4,5 4 2 13 7 WNW 1014,7 9 0 0,0
14.01.2018 05:00:00 4,9 4,3 1 1 4 2 S 1014,6 1,5 0 0,0
14.01.2018 04:00:00 5,1 4,5 1 1 14 7 SE 1015,1 3,0 0 0,0
14.01.2018 03:00:00 4,9 3,9 3 2 9 5 N 1014,8 1,4 0 0,0
14.01.2018 02:00:00 5,3 4,5 5 3 10 5 ENE 1015,1 3,5 0 0,8
14.01.2018 01:00:00 5,1 4,1 2 1 9 5 SE 1015,9 2,5 0 -
14.01.2018 00:00:00 5,6 3,0 3 2 10 6 WSW 1016,4 10 0 0,0
13.01.2018 23:00:00 5,7 2,9 5 3 11 6 NNE 1016,6 12 0 0,0
13.01.2018 22:00:00 5,6 2,5 3 2 10 5 N 1017,1 10 0 0,0
13.01.2018 21:00:00 6,0 2,3 4 2 9 5 NE 1017,7 10 0 0,0
13.01.2018 20:00:00 6,3 2,1 3 2 7 4 ESE 1017,8 11 0 0,0
13.01.2018 19:00:00 6,2 1,1 4 2 6 4 WSW 1018,1 14 0 -
13.01.2018 18:00:00 6,5 1,7 2 1 6 3 ENE 1017,7 17 0 0,0
13.01.2018 17:00:00 6,9 1,5 3 1 7 4 NNE 1018,4 17 0 0,0
13.01.2018 16:00:00 6,8 0,6 1 1 7 4 NE 1018,7 19 0 0,0
13.01.2018 15:00:00 6,8 0,6 2 1 5 3 NNW 1019,3 20 6 0,0
13.01.2018 14:00:00 6,1 -0,3 2 1 6 4 W 1020,5 20 13 0,0
13.01.2018 13:00:00 4,4 -1,2 3 2 7 4 N 1021,9 20 19 -
13.01.2018 12:00:00 2,5 -1,4 3 2 7 4 NNE 1023,0 16 48 0,0
13.01.2018 11:00:00 0,8 -2,0 4 2 6 3 N 1023,7 18 45 0,0
13.01.2018 10:00:00 -1,0 -2,5 4 2 6 3 NNE 1023,8 9 10 0,0
13.01.2018 09:00:00 -2,7 -3,6 2 1 8 4 NW 1023,9 12 0 0,0
13.01.2018 08:00:00 -3,0 -3,6 2 1 6 3 NNE 1024,0 7 0 0,0
13.01.2018 07:00:00 -2,7 -3,3 4 2 7 4 NNE 1023,9 8 0 -
13.01.2018 06:00:00 -2,5 -3,3 3 2 9 5 NE 1024,1 3,2 0 0,0
13.01.2018 05:00:00 -2,2 -3,0 4 2 8 4 NE 1024,5 6 0 0,0
13.01.2018 04:00:00 -1,9 -2,5 3 1 5 3 N 1024,8 3,9 0 0,0
13.01.2018 03:00:00 -1,7 -2,7 1 1 5 3 SSW 1025,2 6 0 0,0
13.01.2018 02:00:00 -1,0 -2,0 4 2 8 4 NNE 1025,4 4,7 0 0,0
13.01.2018 01:00:00 -0,5 -1,7 3 2 7 4 N 1025,6 10 0 -
13.01.2018 00:00:00 0,3 -1,2 2 1 8 4 N 1025,7 10 0 0,0
12.01.2018 23:00:00 0,6 -1,2 4 2 12 7 NNE 1025,8 13 0 0,0
12.01.2018 22:00:00 1,8 -0,3 6 3 9 5 NE 1025,3 10 0 0,0
12.01.2018 21:00:00 2,8 0,0 4 2 7 4 N 1024,9 19 0 0,0
12.01.2018 20:00:00 4,5 0,9 3 2 8 4 NNW 1024,1 20 0 0,0
12.01.2018 19:00:00 5,9 0,6 3 1 10 5 ESE 1023,4 19 0 -
12.01.2018 18:00:00 7,3 0,4 6 3 15 8 W 1022,6 20 16 0,0
12.01.2018 17:00:00 9,7 0,6 8 5 18 10 WNW 1022,1 20 60 0,0
12.01.2018 16:00:00 9,9 0,9 3 2 11 6 NNW 1021,8 20 60 0,0
12.01.2018 15:00:00 9,1 0,9 5 3 13 7 NNW 1021,9 20 60 0,0
12.01.2018 14:00:00 8,4 0,9 6 4 18 10 WNW 1022,2 20 60 0,0
12.01.2018 13:00:00 6,2 0,6 5 3 11 6 NE 1023,1 20 60 -
12.01.2018 12:00:00 4,5 0,2 6 3 15 8 NE 1023,9 20 60 0,0
12.01.2018 11:00:00 3,1 -0,3 13 7 18 10 NE 1024,5 20 53 0,0
12.01.2018 10:00:00 1,9 -0,5 6 3 11 6 NE 1024,4 20 0 0,0
12.01.2018 09:00:00 1,2 -0,5 6 3 11 6 E 1023,9 13 0 0,0
12.01.2018 08:00:00 1,2 -0,3 5 3 12 6 NNE 1023,5 19 0 0,0
12.01.2018 07:00:00 1,5 -0,3 7 4 14 8 NE 1023,1 20 0 -
12.01.2018 06:00:00 0,5 -0,7 7 4 13 7 NE 1023,0 16 0 0,0
12.01.2018 05:00:00 0,0 -1,2 8 5 15 8 NE 1022,8 20 0 0,0
12.01.2018 04:00:00 0,2 -1,0 8 4 15 8 ENE 1022,6 20 0 0,0
12.01.2018 03:00:00 0,5 -0,7 8 5 13 7 ENE 1022,3 19 0 0,0
12.01.2018 02:00:00 2,1 0,2 3 2 8 5 NNE 1021,4 20 0 0,0
12.01.2018 01:00:00 1,5 -0,5 4 2 9 5 NE 1021,8 20 0 -
12.01.2018 00:00:00 4,8 0,9 8 4 24 13 NW 1021,1 20 0 0,0
11.01.2018 23:00:00 5,3 1,1 10 5 28 15 WNW 1020,1 20 0 0,0
11.01.2018 22:00:00 5,8 0,9 13 7 28 15 WNW 1019,4 20 0 0,0
11.01.2018 21:00:00 6,4 1,1 13 7 26 14 WNW 1018,5 20 0 0,0
11.01.2018 20:00:00 7,3 0,9 11 6 26 14 W 1017,6 20 0 0,0
11.01.2018 19:00:00 8,3 0,9 9 5 18 10 W 1017,0 20 0 -
11.01.2018 18:00:00 9,5 1,1 8 5 24 13 WSW 1016,0 20 15 0,0
11.01.2018 17:00:00 10,9 1,5 12 6 25 14 W 1015,1 20 60 0,0
11.01.2018 16:00:00 11,5 1,5 13 7 29 16 W 1014,5 20 60 0,0
11.01.2018 15:00:00 11,4 1,1 11 6 25 14 W 1014,1 20 60 0,0
11.01.2018 14:00:00 10,5 1,5 13 7 28 15 W 1014,3 20 60 0,0
11.01.2018 13:00:00 9,5 1,1 13 7 21 11 W 1014,9 20 60 -
11.01.2018 12:00:00 7,4 0,9 5 3 16 8 NNE 1015,7 20 60 0,0
11.01.2018 11:00:00 5,9 0,9 11 6 18 10 NE 1016,1 20 60 0,0
11.01.2018 10:00:00 4,4 1,5 7 4 19 10 ENE 1015,6 20 18 0,0
11.01.2018 09:00:00 4,6 0,2 5 3 22 12 NW 1015,6 20 0 0,0
11.01.2018 08:00:00 4,8 0,2 10 6 24 13 NW 1015,2 20 0 0,0
11.01.2018 07:00:00 5,6 0,9 15 8 29 16 WNW 1014,6 20 0 -
11.01.2018 06:00:00 5,2 0,9 7 4 22 12 WNW 1014,5 20 0 0,0
11.01.2018 05:00:00 5,8 1,3 15 8 31 17 WNW 1014,2 20 0 0,0
11.01.2018 04:00:00 5,3 3,2 4 2 13 7 E 1014,4 8 0 0,0
11.01.2018 03:00:00 5,5 3,0 5 3 10 5 NE 1014,7 14 0 0,0
11.01.2018 02:00:00 6,0 2,9 4 2 17 9 NNW 1014,1 18 0 0,0
11.01.2018 01:00:00 6,9 3,4 7 4 26 14 W 1013,8 19 0 -
11.01.2018 00:00:00 6,7 3,0 2 1 21 11 SSW 1014,2 15 0 0,0
10.01.2018 23:00:00 7,5 3,2 11 6 20 11 WNW 1014,1 18 0 0,0
10.01.2018 22:00:00 6,9 3,2 5 3 14 8 NNE 1014,3 14 0 0,0
10.01.2018 21:00:00 6,5 2,9 3 2 13 7 NE 1014,3 14 0 0,0
10.01.2018 20:00:00 6,3 2,7 4 2 18 10 NNE 1014,5 15 0 0,0

tt = temperature
td = dewpoint
ff = wind speed
fx = gusts
dd = wind direction
ppp = reduced air pressure
vv = visibility
sd = sunshine duration
rr = precipitation

Next stations